sat.trackr.live / text

‹ back to catalog

STARLINK-32250

NORAD 60425 · 2024-144A

PAYLOAD ACTIVE UNKNOWN

§ Identity

Operator
Country
US
Launch date
2024-08-12
Launch site
AFETR
Launch vehicle
Mass (kg)
RCS (m²)

Purposes: comms

External: N2YO · Heavens-Above · Gunter

§ Orbital elements

Epoch: 2026-09-21T14:12:38.603808Z

Period
93.85 min
Inclination
53.1597°
Eccentricity
0.0000921
Mean motion
15.34395645 rev/d
Perigee alt
462.1 km
Apogee alt
463.3 km
Semi-major
6,840.9 km
B*
6.6683e-5
RAAN
24.2861°
Arg perigee
89.7937°
Mean anomaly
270.3171°
Rev number
11,844

§ Raw data

STARLINK-322501 60425U 24144A   26264.59211347  .00001877  00000+0  66683-4 0  99992 60425  53.1597  24.2861 0000921  89.7937 270.3171 15.34395645118441

JSON: /api/v1/satellites/60425 · /tle

For live sub-satellite position, see the globe view (requires WebGL).

§ Visibility from observer

Set your observer location to see the next 7 days of passes ≥ 10°. The values pass through the URL so the page stays shareable.

No JS? Fill the form by hand. The geolocation button needs JavaScript.